Weather in Mytishchi

Russia / Ivanovo Oblast     57°04′59″N   40°13′47″E
temp.,
°C
wind,
m/s
gust,
m/s
humid.,
%
clouds,
%
prec.,
mm/h
press.,
hPa
HPBL,
m
27 february, sat
sat2700:000wnw51297100 0.8 995706
03:00−7nw6128999 1.6 998490
06:00−12n61292100 0.5 1001646
09:00−12n51089100 0.6 1006590
12:00−10n4787100 0.0 1008529
15:00−9nnw4788100 0.1 1009535
18:00−11nnw2795100 0.0 1011207
21:00−13nnw269798 0.1 1013177
28 february, sun
sun2800:00−15nnw229772 0.0 101449
03:00−15nw229636 0.0 101528
06:00−14nnw129768 0.1 101554
09:00−11nnw129377 0.1 1015163
12:00−7nw138793 0.1 1015365
15:00−5nnw238996 0.1 1016450
18:00−6nnw1396100 0.1 101694
21:00−7ene1196100 0.1 101921
1 march, mon
mon100:00−7sw1197100 0.1 102021
03:00−8wsw1297100 0.2 102121
06:00−10wsw129791 0.1 102121
09:00−8sw129682 0.1 102285
12:00−3wsw359163 0.0 1021370
15:00−1sw478869 0.0 1020628
18:00−1wsw41095100 0.1 1017543
21:00−1wsw51296100 0.3 1014657
2 march, tue
tue200:00+1w61297100 0.4 1010777
03:000w51296100 0.6 1008783
06:00+1wnw61297100 0.9 1005811
09:000nw51187100 1.5 10041098
12:00+1nw61192100 0.4 1005961
15:00+1nw5108598 0.6 10051045
18:00−1nw5138899 0.1 1007772
21:00−3nw5139299 0.2 1008628
3 march, wed
wed300:00−4nw5138798 0.2 1009624
03:00−5nnw5129299 0.4 1011652
06:00−6nnw51191100 0.1 1013615
09:00−7nw499096 0.2 1015406
12:00−3nw499257 0.1 1015707
15:00−2nw598979 0.6 1015956
18:00−3nw4985100 0.1 1016808
21:00−4nw2896100 0.3 1016530